| time (UTC) | temp C | wind direction | speed KPH | gust KPH | rain 1hr cm | rain 24hr cm | rain mn cm | humidity % | barometer mb |
| 20260503220037 | 6 | 259 | 3.2 | 9.7 | 0.00 | 0.00 | 0.00 | 53 | 1009.9 |
| 20260503214537 | 6 | 323 | 3.2 | 8.0 | 0.00 | 0.00 | 0.00 | 53 | 1009.7 |
| 20260503213033 | 6 | 219 | 3.2 | 8.0 | 0.00 | 0.00 | 0.00 | 54 | 1009.9 |
| 20260503211533 | 6 | 288 | 1.6 | 6.4 | 0.00 | 0.00 | 0.00 | 54 | 1009.7 |
| 20260503210031 | 6 | 311 | 1.6 | 6.4 | 0.00 | 0.00 | 0.00 | 56 | 1009.7 |
| 20260503204531 | 6 | 306 | 3.2 | 8.0 | 0.00 | 0.00 | 0.00 | 57 | 1009.7 |
| 20260503203100 | 6 | 244 | 1.6 | 12.9 | 0.00 | 0.00 | 0.00 | 58 | 1009.7 |
| 20260503201558 | 6 | 360 | 4.8 | 12.9 | 0.00 | 0.00 | 0.00 | 56 | 1009.7 |
| 20260503200059 | 5 | 284 | 3.2 | 8.0 | 0.00 | 0.00 | 0.00 | 59 | 1009.9 |
| 20260503194555 | 5 | 302 | 3.2 | 12.9 | 0.00 | 0.00 | 0.00 | 60 | 1010.2 |
| 20260503193059 | 5 | 318 | 3.2 | 16.1 | 0.00 | 0.00 | 0.00 | 60 | 1010.1 |
| 20260503191603 | 5 | 303 | 6.4 | 14.5 | 0.00 | 0.00 | 0.00 | 60 | 1010.4 |
| 20260503190048 | 5 | 300 | 6.4 | 12.9 | 0.00 | 0.00 | 0.00 | 61 | 1010.4 |
| 20260503184547 | 5 | 297 | 4.8 | 12.9 | 0.00 | 0.00 | 0.00 | 61 | 1010.5 |
| 20260503183107 | 5 | 329 | 3.2 | 6.4 | 0.00 | 0.00 | 0.00 | 61 | 1010.6 |
| 20260503181613 | 5 | 28 | 3.2 | 9.7 | 0.00 | 0.00 | 0.00 | 60 | 1010.5 |
| 20260503180043 | 5 | 324 | 4.8 | 14.5 | 0.00 | 0.00 | 0.00 | 60 | 1010.5 |
| 20260503174543 | 5 | 346 | 4.8 | 12.9 | 0.00 | 0.00 | 0.00 | 60 | 1010.5 |
| 20260503173045 | 5 | 286 | 4.8 | 14.5 | 0.00 | 0.00 | 0.00 | 60 | 1010.6 |
| 20260503171540 | 5 | 295 | 8.0 | 12.9 | 0.00 | 0.00 | 0.00 | 61 | 1010.6 |
| 20260503150106 | 5 | 324 | 3.2 | 11.3 | 0.00 | 0.00 | 0.00 | 60 | 1011.2 |
| 20260503081507 | 1 | 162 | 0.0 | 1.6 | 0.00 | 0.00 | 0.00 | 95 | 1012.2 |
| 20260503071537 | 1 | 164 | 0.0 | 3.2 | 0.00 | 0.00 | 0.00 | 95 | 1012.0 |
| 20260503060121 | 1 | 164 | 0.0 | 1.6 | 0.00 | 0.00 | 0.00 | 95 | 1012.5 |
| 20260503054600 | 1 | 164 | 0.0 | 3.2 | 0.00 | 0.00 | 0.00 | 95 | 1012.6 |
| 20260503053054 | 1 | 164 | 0.0 | 1.6 | 0.00 | 0.00 | 0.00 | 95 | 1012.6 |
| 20260503051553 | 1 | 164 | 0.0 | 3.2 | 0.00 | 0.00 | 0.00 | 95 | 1012.9 |
| 20260503050052 | 1 | 164 | 0.0 | 3.2 | 0.00 | 0.00 | 0.00 | 95 | 1012.9 |
| 20260503044548 | 1 | 164 | 0.0 | 4.8 | 0.00 | 0.00 | 0.00 | 95 | 1012.9 |
| 20260503043046 | 1 | 62 | 0.0 | 1.6 | 0.00 | 0.00 | 0.00 | 94 | 1013.2 |
| 20260503041543 | 1 | 62 | 0.0 | 3.2 | 0.00 | 0.00 | 0.00 | 94 | 1013.2 |
| 20260503040043 | 1 | 109 | 0.0 | 3.2 | 0.00 | 0.00 | 0.00 | 95 | 1013.2 |
| 20260503034541 | 1 | 66 | 0.0 | 4.8 | 0.00 | 0.00 | 0.00 | 95 | 1013.4 |
| 20260503033048 | 1 | 104 | 0.0 | 3.2 | 0.00 | 0.00 | 0.00 | 95 | 1013.4 |
| 20260503031511 | 1 | 104 | 0.0 | 1.6 | 0.00 | 0.00 | 0.00 | 95 | 1013.4 |
| 20260503030010 | 1 | 102 | 1.6 | 8.0 | 0.00 | 0.00 | 0.00 | 95 | 1013.6 |
| 20260503024506 | 1 | 47 | 0.0 | 6.4 | 0.00 | 0.00 | 0.00 | 94 | 1013.6 |
| 20260503023005 | 1 | 77 | 0.0 | 6.4 | 0.00 | 0.00 | 0.00 | 95 | 1013.7 |
| 20260503021503 | 1 | 101 | 1.6 | 3.2 | 0.00 | 0.00 | 0.00 | 95 | 1013.8 |
| 20260503020002 | 1 | 103 | 0.0 | 3.2 | 0.00 | 0.00 | 0.00 | 94 | 1013.9 |
| 20260503014558 | 1 | 101 | 0.0 | 3.2 | 0.00 | 0.00 | 0.00 | 94 | 1014.0 |
| 20260503013103 | 1 | 100 | 0.0 | 3.2 | 0.00 | 0.00 | 0.00 | 94 | 1013.9 |
| 20260503011606 | 1 | 98 | 0.0 | 3.2 | 0.00 | 0.00 | 0.00 | 94 | 1014.0 |
| 20260503010119 | 2 | 98 | 1.6 | 6.4 | 0.00 | 0.00 | 0.00 | 93 | 1013.9 |
| 20260503004527 | 2 | 101 | 0.0 | 4.8 | 0.00 | 0.00 | 0.00 | 94 | 1013.7 |
| 20260503003024 | 2 | 38 | 0.0 | 4.8 | 0.00 | 0.00 | 0.00 | 94 | 1013.4 |
| 20260503001521 | 2 | 49 | 0.0 | 3.2 | 0.00 | 0.00 | 0.00 | 94 | 1013.5 |
| 20260503000019 | 2 | 47 | 0.0 | 3.2 | 0.00 | 0.00 | 0.00 | 93 | 1013.5 |
| 20260502234516 | 2 | 47 | 0.0 | 0.0 | 0.00 | 0.00 | 0.00 | 93 | 1013.2 |
| 20260502233018 | 2 | 279 | 0.0 | 3.2 | 0.00 | 0.00 | 0.00 | 93 | 1013.1 |
| 20260502231614 | 2 | 279 | 0.0 | 3.2 | 0.00 | 0.00 | 0.00 | 92 | 1013.2 |
| 20260502230045 | 2 | 279 | 0.0 | 3.2 | 0.00 | 0.00 | 0.00 | 92 | 1013.0 |
| 20260502224543 | 2 | 279 | 0.0 | 3.2 | 0.00 | 0.00 | 0.00 | 89 | 1012.9 |
| 20260502223045 | 3 | 279 | 0.0 | 6.4 | 0.00 | 0.00 | 0.00 | 88 | 1012.8 |
| 20260502221545 | 3 | 107 | 0.0 | 4.8 | 0.00 | 0.00 | 0.00 | 86 | 1012.5 |